www.pogodaiklimat.ru

Погода и климат >> Архив погоды >> Бенин >> Сав


ПОГОДА в Саве

  • Прогноз погоды в Саве
  • Монитор погоды в Саве

АРХИВ ПОГОДЫ в Саве

Время (UTC), дата Ветер
(напр.,м/с)
 
Видим.   Явления Облачность Т
(С)
Тd
(С)
f
(%)
Тe
(С)
Тes
(С)
Комфортность P
(гПа)
Po
(гПа)
Тmin
(С)
Tmax
(С)
R
(мм)
R24
(мм)
S
(см)
09 11.07 З 1 6000 м 10/10 330 м
[Sc]
+25.9 +22.7 83 +34 +34 очень
душно
1014.8 992.4
12 11.07 СЗ 2 7000 м гроза, ливневой дождь 10/6 240 м
[Cb cap Ac As]
+21.3 +20.2 93 +26 +29 душно 1014.3 991.7 21
15 11.07 СЗ 1 10 км в посл. час дождь {гроза} 10/3 240 м
[Cu Sc Ac As]
+23.4 +21.6 90 +32 +34 очень
душно
1011.4 989.0
18 11.07 ЮЗ 2 10 км {гроза, дождь} 9/1 360 м
[Cu hum Ac As]
+24.1 +21.7 86 +31 +31 очень
душно
1011.7 989.3 +27.6 25
21 11.07 С 1 8000 м в посл. час дождь 10/0
[Ac As]
+23.3 +22.0 92 +32 +32 очень
душно
1013.6 991.2
00 12.07 штиль 0 500 м туман {дождь} 10/3 240 м
[Sc Ac As]
+22.7 +21.8 95 +30 +30 очень
душно
1013.2 990.6 0.1
03 12.07 ЮВ 1 2000 м дымка {туман} 10/9 240 м
[Sc Ac As]
+22.2 +21.6 96 +29 +29 очень
душно
1013.2 990.7
06 12.07 штиль 0 8000 м {туман} 10/3 240 м
[Sc Ac As]
+22.1 +21.4 96 +29 +29 очень
душно
1014.5 991.9 +21.7 26
09 12.07 ЮЗ 4 8000 м 10/5 180 м
[Frnb Ac As]
+23.7 +22.1 91 +31 +32 очень
душно
1013.9 991.4
12 12.07 Ю 3 10 км 10/8 330 м
[Cu Sc Ac trans]
+26.5 +22.9 81 +35 +37 очень
душно
1014.3 991.9
15 12.07 Ю 2 12 км 9/4 330 м
[Cb calv Ac trans Ci sp]
+28.4 +22.8 72 +38 +41 очень
душно
1011.8 989.4
18 12.07 Ю 1 10 км 10/0
[Ac As Ci sp]
+26.6 +23.3 82 +36 +36 очень
душно
1011.3 988.9 +29.7
21 12.07 Ю 2 10 км 9/0
[Ac As]
+24.4 +22.9 91 +32 +32 очень
душно
1013.5 991.0
00 13.07 Ю 1 1800 м дымка 10/10 240 м
[Sc]
+23.8 +22.6 93 +31 +31 очень
душно
1013.5 991.1
03 13.07 Ю 1 2000 м дымка {туман} 9/9 240 м
[Sc]
+23.4 +22.2 93 +32 +32 очень
душно
1013.0 990.7
06 13.07 Ю 2 4000 м дымка {туман} 10/8 240 м
[Sc Ac As]
+23.2 +22.0 93 +32 +32 очень
душно
1013.9 991.5 +22.6
09 13.07 Ю 2 7000 м 10/10 240 м
[Sc]
+24.9 +22.1 84 +32 +32 очень
душно
1015.7 993.3
12 13.07 Ю 3 10 км 9/8 300 м
[Cu Sc Ci sp]
+28.5 +21.3 65 +36 +39 очень
душно
1014.1 991.8
15 13.07 Ю 2 10 км 9/5 300 м
[Cu Sc Ac trans Ci sp]
+29.8 +22.1 63 +38 +41 очень
душно
1011.7 989.5
18 13.07 Ю 1 10 км 9/1 300 м
[Cu Sc Ac trans Ci sp]
+28.8 +22.7 70 +38 +38 очень
душно
1011.6 989.3 +30.6
21 13.07 ЮВ 2 10 км 6/0
[Ac trans Ci sp]
+25.5 +22.7 85 +34 +34 очень
душно
1014.1 991.7
00 14.07 Ю 1 7000 м 9/0
[Ac trans Ci sp]
+23.9 +22.6 92 +31 +31 очень
душно
1013.9 991.6
03 14.07 Ю 2 4000 м дымка 10/10 240 м
[Sc]
+23.1 +22.1 94 +31 +31 очень
душно
1012.9 990.7
06 14.07 ЮЗ 1 1800 м дымка 9/3 180 м
[St Ac trans Ci sp]
+23.0 +21.7 92 +31 +31 очень
душно
1013.7 991.4 +22.4
09 14.07 ЮЗ 2 8000 м 9/8 300 м
[Sc Ci sp]
+25.7 +21.9 80 +33 +35 очень
душно
1014.8 992.4
12 14.07 Ю 2 10 км 9/9 300 м
[Cu Sc Ci sp]
+29.5 +22.4 66 +39 +41 очень
душно
1013.1 990.9
15 14.07 СЗ 4 10 км 9/6 420 м
[Cu med, cong Ac trans Ci sp]
+30.5 +22.3 62 +40 +41 очень
душно
1010.9 988.7
18 14.07 З 1 10 км 8/0
[Ac trans Ci sp]
+29.3 +22.7 68 +39 +39 очень
душно
1010.4 988.1 +30.8
21 14.07 Ю 1 10 км 8/0
[Ci sp]
+26.2 +23.3 84 +35 +35 очень
душно
1011.8 989.5
00 15.07 Ю 1 10 км 9/1 300 м
[Sc As op]
+24.6 +23.0 91 +33 +33 очень
душно
1011.8 989.6
03 15.07 ЮВ 1 10 км 10/10 300 м
[Sc]
+23.6 +22.0 91 +30 +30 очень
душно
1011.0 988.8
06 15.07 С 1 6000 м гроза, ливневой дождь 10/1 900 м
[Cb cap Ac As]
+21.5 +20.1 92 +27 +27 душно 1012.5 990.1 +20.6 15
09 15.07 СЗ 3 8000 м в посл. час дождь {гроза} 10/3 240 м
[Sc Ac As]
+21.6 +20.7 95 +27 +29 душно 1013.5 991.0
12 15.07 ЮЗ 3 10 км {гроза, дождь} 9/1 400 м
[Cu hum Ac trans Ci sp]
+27.2 +21.9 73 +35 +44 очень
душно
1010.9 988.6 6
15 15.07 С 2 12 км 9/3 400 м
[Cu hum Ac trans Ci sp]
+30.6 +21.7 59 +39 +43 очень
душно
1008.3 986.2
18 15.07 Ю 3 11 км 8/3 400 м
[Cu med, cong Ac trans Ci sp]
+28.6 +22.8 71 +38 +38 очень
душно
1009.7 987.4 +31.0 6
21 15.07 ЮВ 1 10 км гроза без осадков 10/3 900 м
[Cb cap Ac As]
+25.6 +22.7 84 +34 +34 очень
душно
1011.8 989.4
00 16.07 Ю 1 6000 м в посл. час дождь {гроза} 10/0
[Ac As]
+24.6 +23.3 92 +33 +33 очень
душно
1011.8 989.5 2
03 16.07 штиль 0 2000 м дымка 10/0
[Ac As]
+24.1 +23.1 94 +32 +32 очень
душно
1010.6 988.4
06 16.07 ЮВ 2 1500 м дымка 10/10 300 м
[Sc]
+23.8 +22.8 94 +31 +31 очень
душно
1012.1 989.8 +23.4 8
09 16.07 Ю 3 6000 м в посл. час дождь {туман} 10/10 300 м
[Sc]
+24.5 +22.3 88 +32 +32 очень
душно
1013.9 991.5
12 16.07 Ю 3 8000 м {дождь, туман} 9/8 300 м
[Cu Sc Ac trans Ci sp]
+28.4 +22.6 71 +38 +40 очень
душно
1012.8 990.6 0.2
15 16.07 Ю 2 10 км 9/3 420 м
[Cu med, cong Ac trans Ci sp]
+28.6 +22.7 70 +38 +42 очень
душно
1010.8 988.5
18 16.07 Ю 3 10 км 9/5 330 м
[Cb cap Ac lent Ci sp]
+26.7 +23.4 82 +36 +36 очень
душно
1011.4 989.0 +29.6 0.2
21 16.07 Ю 2 8000 м 6/0
[Ac trans Ci sp]
+24.4 +22.3 88 +32 +32 очень
душно
1013.6 991.2
00 17.07 Ю 1 6000 м 10/0
[Ac trans]
+23.0 +22.0 94 +31 +31 очень
душно
1013.6 991.3
03 17.07 ЮВ 1 6000 м 6/0
[Ac trans Ci sp]
+22.4 +21.2 93 +29 +29 очень
душно
1013.4 991.1
06 17.07 штиль 0 4500 м дымка 9/8 300 м
[Sc Ac trans Ci sp]
+22.6 +21.6 94 +30 +30 очень
душно
1014.4 992.0 +21.6 0.2
09 17.07 Ю 1 8000 м 10/3 240 м
[Sc Ac As]
+24.2 +22.0 88 +31 +34 очень
душно
1016.0 993.5
12 17.07 Ю 3 10 км 9/4 330 м
[Cu Sc Ac trans Ci sp]
+27.0 +22.6 77 +36 +42 очень
душно
1014.4 992.0
15 17.07 СЗ 2 10 км 8/8 330 м
[Cb calv Ci sp]
+30.9 +21.2 56 +38 +41 очень
душно
1011.3 989.1
18 17.07 Ю 1 10 км 6/1 900 м
[Cb cap Ac cuf Ci sp]
+29.9 +23.6 69 +41 +41 опасность
перегрева
1010.7 988.4 +31.6
21 17.07 ЮВ 1 10 км зарница 8/1 900 м
[Cb cap Ac trans Ci sp]
+26.8 +23.2 81 +36 +36 очень
душно
1012.6 990.3
00 18.07 Ю 1 2000 м дымка 8/3 240 м
[Sc Ci sp]
+24.6 +23.3 92 +33 +33 очень
душно
1012.5 990.2
03 18.07 штиль 0 2000 м дымка {туман} 6/0
[Ci sp]
+23.5 +22.3 93 +31 +31 очень
душно
1011.8 989.6
06 18.07 штиль 0 2500 м дымка {туман} 10/4 240 м
[Sc Ac trans Ci sp]
+22.7 +21.7 94 +30 +30 очень
душно
1012.6 990.3 +22.3

 

Местоположение метеостанции Сав (Бенин): широта 8.03 долгота 2.47 высота над уровнем моря 200 м.

В архиве по умолчанию представлена погода в Саве за последнюю неделю. Архивные данные за месяц целиком и за предыдущие месяцы, начиная с января 2011 года, Вы можете получить, выбрав интересующий диапазон дат из раскрывающегося списка и нажав кнопку "Ввод!".


*Определитесь, кто Вы:
робот инопланетянин человек

Внимание! Время в таблицах - всемирное. Для получения местного времени необходимо прибавить поправку, которая равна 1 ч.

Смотрите также архив погоды в соседних городах и на ближайших метеорологических станциях:

Погода в Боиконе (Бенин) (105 км)
Погода в Параку (Бенин) (148 км)
Погода в Атакпаме (Того) (157 км)
Погода в Ибадане (Нигерия) (171 км)
Погода в Сокоде (Того) (180 км)
Погода в Лагосе (Нигерия) (187 км)
Погода в Котону (Бенин) (187 км)
Погода в Таблигбо (Того) (194 км)
Погода в Лагосе Ошоди (Нигерия) (198 км)
Погода в Иджебу-Оде (Нигерия) (209 км)

Пояснения к столбцам:

Ветер - указаны скорость ветра в м/с - средняя за 10 мин, порывы в срок и между сроками (в фигурных скобках) и направление, откуда дует ветер: С - северный, СВ - северо-восточный, В - восточный, ЮВ - юго-восточный, Ю - южный, ЮЗ - юго-западный, З - западный, СЗ - северо-западный.
Видимость - горизонтальная дальность видимости в метрах или километрах. При видимости от 1 до 10 км при отсутствии осадков обычно наблюдается дымка, при ухудшении видимости до 1 км и менее - туман. В сухую погоду видимость может ухудшаться дымом, пылью или мглою.
Явления - указаны атмосферные явления, наблюдавшиеся в срок или в последний час перед сроком; фигурными скобками обозначены явления, наблюдавшиеся между сроками (за 1-3 часа до срока); квадратными скобками обозначены град или гололедные отложения с указанием их диаметра в мм.
Облачность - указаны через наклонную черту общая и нижняя облачность в баллах и высота нижней границы облаков в метрах; квадратными скобками обозначены формы облаков: Ci - перистые, Cs - перисто-слоистые, Cc - перисто-кучевые, Ac - высококучевые, As - высокослоистые, Sc - слоисто-кучевые, Ns - слоисто-дождевые, Cu - кучевые, Cb - кучево-дождевые. Подробнее классификацию облаков см. в Атласе облаков (PDF).
T - Температура воздуха - температура, измеренная на высоте 2 м над землей.
Td - Температура точки росы - температура, при понижении до которой содержащийся в воздухе водяной пар достигнет насыщения.
f - Относительная влажность воздуха - влажноcть воздуха, измеренная на высоте 2 м над землей.
Te - Эффективная температура - температура, которую ощущает одетый по сезону человек в тени. Характеристика душности погоды. При расчете учитывается влияние влажности воздуха и скорости ветра на теплоощущения человека.
Tes - Эффективная температура на солнце - температура, которую ощущает человек, с поправкой на солнечный нагрев. Характеристика знойности погоды. Зависит от высоты солнца над горизонтом, облачности и скорости ветра. Ночью, в пасмурную погоду, а также при ветре 12 м/с и более поправка равна нулю.
P - Атмосферное давление - приведенное к уровню моря атмосферное давление.
Po - Атмосферное давление - измеренное на уровне метеостанции атмосферное давление.
Tmin - Минимальная температура - минимум температуры воздуха на высоте 2 м над землей.
Tmax - Максимальная температура - максимум температуры воздуха на высоте 2 м над землей.
R - Количество осадков - Количество выпавших осадков за период времени, мм. При наведении курсора мыши на число - период времени, за который выпало указанное количество осадков.
R24 - Количество осадков - Количество выпавших осадков за 24 часа, мм.
S - Снежный покров - Высота снежного покрова, см. При наведении курсора мыши на число - состояние снежного покрова и степень покрытия местности в баллах.